Погода в Балхаше

Казахстан     46°50′21″N   74°59′00″E
темп.,
°C
ветер,
м/с
пор.,
м/с
влажн.,
%
обл.,
%
осадки,
мм/ч
давл.,
гПа
погр.,
м
25 февраля, чт
чт2500:00−13з6875100 0.3 1025954
03:00−15з5117281 0.0 1028739
06:00−15зюз5108063 0.0 1030808
09:00−14зюз8157266 0.0 10311501
12:00−12зюз12187281 0.0 10311905
15:00−12зюз121774100 0.1 10322056
18:00−13з111569100 0.2 10341489
21:00−15з81273100 0.0 1038989
26 февраля, пт
пт2600:00−17з71374100 0.0 1040835
03:00−21зсз468033 0.0 1042284
06:00−22ссз238119 0.0 1044161
09:00−22ссв22804 0.0 1044133
12:00−20св21832 0.0 1043297
15:00−17всв118380 0.0 1042525
18:00−18св448790 0.0 1041194
21:00−20св458729 0.0 1042117
27 февраля, сб
сб2700:00−21всв568629 0.0 1041174
03:00−22св578645 0.0 1041182
06:00−22св678667 0.0 1040197
09:00−20св6786100 0.0 1040219
12:00−16всв5586100 0.0 1039307
15:00−13всв458398 0.0 1037386
18:00−13св348998 0.0 103765
21:00−15всв459144 0.0 103847
28 февраля, вс
вс2800:00−15всв559222 0.0 103765
03:00−14в55910 0.0 103664
06:00−14в559025 0.0 103574
09:00−11вюв4588100 0.0 103497
12:00−5ююв347796 0.0 1031257
15:00−1ю356466 0.0 1028467
18:00−5вюв127681 0.0 102721
21:00−5вюв4571100 0.0 102737
1 марта, пн
пн100:00−6юв457199 0.0 102631
03:00−6ююв347588 0.0 102524
06:00−7ююв347793 0.0 102522
09:00−5ююв347694 0.0 102537
12:00−1ююв466997 0.0 1024353
15:000юв347398 0.0 1022171
18:00−2вюв118099 0.0 102221
21:00−5зсз1278100 0.0 102421